Flag for Brazil Weather past 2 weeks in Fortaleza, Ceará, Brazil

Now
86 °F

Passing clouds.


Feels Like: 91 °F
Forecast: 77 / 85 °F
Wind: 23 mph from East

Location: Fortaleza Aeropor-To

Current Time: May 28, 2015 at 1:53:09 PM

Latest Report: May 28, 2015 at 1:00 PM


Visibility: N/A

Pressure: 29.86 "Hg

Humidity: 59%

Dew point: 70 °F

Location of FortalezaLocation

Historic Weather in Fortaleza — Graph

°F

Fortaleza temperature yesterday

Maximum temperature yesterday: 86 °F (at 12:00 PM)
Minimum temperature yesterday: 77 °F (at 5:00 AM)
Average temperature yesterday: 81 °F

Past Weeks' High & Low Weather Summary

 TemperatureHumidityPressure
High90 °F (May 16, 12:00 PM)89% (May 14, 7:00 AM)30.01 "Hg (May 14, 7:00 AM)
Low75 °F (May 15, 6:00 AM)43% (May 16, 1:00 PM)29.80 "Hg (May 14, 3:00 PM)
Average82 °F71%29.90 "Hg
* Reported May 13 12:00 Noon — May 28 12:00 Noon, Fortaleza, Weather by CustomWeather, © 2015

Note: Actual official high and low records may vary slightly from our data, if they occured in-between our weather recording intervals... More about our weather records

Advertising

Fortaleza weather history for previous 24 hours

 ConditionsComfort  
Time TempWeatherWind HumidityBarometerVisibility
12:00 PM
Thu, May 28
84 °FClear.22 mph66%29.89 "HgN/A
11:00 AM86 °FScattered clouds.21 mph62%29.92 "HgN/A
10:00 AM84 °FScattered clouds.18 mph66%29.92 "HgN/A
9:00 AM81 °FPartly sunny.13 mph79%29.95 "HgN/A
8:00 AM79 °FPartly sunny.8 mph84%29.95 "HgN/A
7:00 AM79 °FPartly sunny.7 mph84%29.92 "HgN/A
6:00 AM75 °FPartly sunny.8 mph89%29.89 "HgN/A
5:00 AM77 °FPassing clouds.9 mph83%29.89 "HgN/A
4:00 AM77 °FPassing clouds.7 mph83%29.86 "HgN/A
3:00 AM79 °FPassing clouds.7 mph84%29.86 "HgN/A
2:00 AM79 °FPassing clouds.10 mph79%29.89 "HgN/A
1:00 AM81 °FPassing clouds.12 mph79%29.89 "HgN/A
12:00 AM81 °FPassing clouds.10 mph79%29.92 "HgN/A
11:00 PM
Wed, May 27
81 °FPassing clouds.8 mph79%29.92 "HgN/A
10:00 PM81 °FPassing clouds.8 mph79%29.95 "HgN/A
9:00 PM81 °FPassing clouds.8 mph79%29.95 "HgN/A
8:00 PM81 °FClear.8 mph79%29.92 "Hg10 mi
7:00 PM81 °FClear.7 mph74%29.89 "Hg10 mi
6:00 PM81 °FClear.9 mph74%29.89 "Hg10 mi
5:00 PM82 °FSunny.15 mph70%29.86 "Hg10 mi
4:00 PM84 °FSunny.15 mph66%29.86 "Hg10 mi
3:00 PM84 °FPassing clouds.15 mph62%29.86 "HgN/A
2:00 PM86 °FPassing clouds.18 mph62%29.86 "HgN/A
1:00 PM86 °FScattered clouds.18 mph62%29.89 "HgN/A
Weather by CustomWeather, © 2015

See weather overviewHow to use our weather pages